Flag for U.S.A. Weather past 2 weeks in Cedar Rapids, Iowa, U.S.A.

Now
44 °F

Clear.


Feels Like: 40 °F
Forecast: 38 / 64 °F
Wind: 7 mph from Northwest

Location: Cedar Rapids Municipal Airport

Current Time: Sep 16, 2014 at 3:06:18 AM

Latest Report: Sep 16, 2014 at 12:52 AM


Visibility: 10 mi

Pressure: 30.24 "Hg

Humidity: 100%

Dew point: 44 °F

Location of Cedar RapidsLocation

Historic Weather in Cedar Rapids — Graph

°F

Cedar Rapids temperature yesterday

Maximum temperature yesterday: 64 °F (at 11:52 AM)
Minimum temperature yesterday: 45 °F (at 11:52 PM)
Average temperature yesterday: 56 °F

Past Weeks' High & Low Weather Summary

 TemperatureHumidityPressure
High89 °F (Sep 4, 3:52 PM)100% (Sep 1, 12:52 AM)30.41 "Hg (Sep 1, 12:52 AM)
Low35 °F (Sep 13, 4:52 AM)44% (Sep 13, 1:52 PM)29.48 "Hg (Sep 10, 3:52 AM)
Average62 °F83%30.03 "Hg
* Reported Sep 1 12:52 AM — Sep 16 12:52 AM, Cedar Rapids, Weather by CustomWeather, © 2014

Note: Actual official high and low records may vary slightly from our data, if they occured in-between our weather recording intervals... More about our weather records

Advertising

Cedar Rapids weather history for previous 24 hours

 ConditionsComfort  
Time TempWeatherWind HumidityBarometerVisibility
12:52 AM
Sep 16
44 °FClear.7 mph100%30.24 "Hg10 mi
11:52 PM
Sep 15
45 °FClear.6 mph93%30.23 "Hg10 mi
10:52 PM48 °FClear.No wind93%30.22 "Hg10 mi
9:52 PM46 °FClear.No wind96%30.22 "Hg10 mi
8:52 PM53 °FClear.5 mph77%30.21 "Hg10 mi
7:52 PM52 °FSunny.8 mph83%30.19 "Hg10 mi
6:52 PM57 °FOvercast.8 mph74%30.18 "Hg10 mi
5:52 PM59 °FPartly sunny.9 mph72%30.17 "Hg10 mi
4:52 PM60 °FPartly sunny.14 mph69%30.15 "Hg10 mi
3:59 PM58 °FPartly sunny.14 mph78%30.15 "Hg10 mi
2:52 PM56 °FMostly cloudy.16 mph84%30.14 "Hg10 mi
1:52 PM58 °FBroken clouds.17 mph81%30.12 "Hg10 mi
12:52 PM58 °FMostly cloudy.22 mph78%30.11 "Hg10 mi
12:04 PM63 °FCloudy.16 mph78%30.10 "Hg10 mi
11:52 AM64 °FMostly cloudy.10 mph75%30.09 "Hg10 mi
10:52 AM63 °FBroken clouds.6 mph78%30.09 "Hg10 mi
9:52 AM61 °FPassing clouds.No wind83%30.07 "Hg10 mi
8:52 AM57 °FScattered clouds.5 mph93%30.09 "Hg10 mi
7:52 AM55 °FOvercast.3 mph100%30.08 "Hg10 mi
6:52 AM54 °FOvercast.3 mph100%30.09 "Hg10 mi
5:52 AM54 °FMostly cloudy.7 mph93%30.06 "Hg10 mi
4:52 AM55 °FOvercast.3 mph90%30.12 "Hg10 mi
3:52 AM55 °FOvercast.3 mph87%30.10 "Hg10 mi
Weather by CustomWeather, © 2014

See weather overviewHow to use our weather pages